DELTA 1 DEB, 40764

Orbit data source: Space-Track

DELTA 1 DEB, 40764 is space debris in SSO originally from a launch on Thu, 29 Jul 1976 UTC launched from the Air Force Western Test Range (AFWTR). Debris objects in space refer to the collection of defunct objects orbiting the Earth. Examples of debris include non-operational satellites, rocket bodies, and fragments generated from explosions, collisions, or faulty payload assembly.

Loading next visibility...
Identifier
40764, 1976-077GH
Orbit
SSO
Last TLE update
1 day ago
Origin
Manufacturer
Unknown
Mission
Spacecraft
Bus & Motor
Unknown
Mass
Unknown
Launch date (UTC)
1976-07-29 (49 years ago)
Launch vehicle
Unknown
Launch site
Air Force Western Test Range (AFWTR)
Object type
Payload
Rocket body
Debris
Shape & HBR
Unknown
Radar Cross Section
Small (<0.1 m²)

Expand to show TLE details & history

TLE from 1 day ago
0 DELTA 1 DEB
1 40764U 76077GH  25189.17247859 -.00000045  00000-0  36965-5 0  9990
2 40764 102.1559 166.0893 0001488   7.9821 352.1266 12.40691537859169
Epoch: 2025-07-08T04:08Z
TLE epoch observation values (Epoch: 2025-07-08T04:08:22.15Z)
Latitude
0.00002°
Longitude
177.62573°
Altitude
1,505.055 km
Speed
7.113 km/s
True Right ascension
11h 04m 21s
True Declination
0° 00' 00"
Sunlit
Object was in daylight at epoch
Visualization orbit readout
Latitude
-18.16498°
Longitude
-177.21777°
Altitude
1,509.265 km
Speed
7.11 km/s
Apparent Right ascension
09h 49m 50s
Apparent Declination
-31° 18' 38"
Sunlit
Object is in daylight
Visualization observer readout
Local Sidereal Time
19:17:25
Azimuth
273.558° WNW
Elevation
-58.111°
Doppler factor
1
Orbital elements
Apogee altitude
1,502.429 km
Perigee altitude
1,500.084 km
Semi-major axis
7,879.393 km
Eccentricity
0.00015
Inclination
102.1559°
RAAN
166.0893°
Arg. of periapsis
7.9821°
True anomaly
Unknown
Mean anomaly
352.1266°
Eccentric anomaly
Unknown
Mean motion
3.10316 °/min
Orbital period
116.01 mins
BSTAR
0.0000036965
Loading maneuver chart data...
Loading SW <> Apogee altitude chart data...
Loading historical data...
Loading historical data...
Loading historical data...
Loading historical data...
Loading historical data...
Loading historical data...
Loading historical data...

DELTA 1 DEB Visibility forecast

Observer location: undefined°, undefined°

Span
Click to sort rows by Start time (UTC) header in descending order
Start Az.
Max El. time (UTC)
Max El. Az.
Max El.
End time (UTC)
End Az.
11 mins2025-07-09 09:50:58.507Z52.227° ENE2025-07-09 09:55:58.507Z91.806° ESE19.809°2025-07-09 10:01:58.507Z138.062° SSE
15 mins2025-07-09 11:43:58.507Z14.96° NNE2025-07-09 11:50:58.507Z268.915° W44.544°2025-07-09 11:58:58.507Z205.658° SW
9 mins2025-07-09 13:38:58.507Z344.577° N2025-07-09 13:42:58.507Z313.477° NW18.238°2025-07-09 13:47:58.507Z274.495° WNW
13 mins2025-07-09 20:55:58.507Z113.128° SE2025-07-09 21:01:58.507Z57.71° ENE29.818°2025-07-09 21:08:58.507Z358.865° N
14 mins2025-07-09 22:48:58.507Z184.026° SSW2025-07-09 22:54:58.507Z246.152° WSW39.639°2025-07-09 23:02:58.507Z332.462° NNW
|